Total_Precipitation_Accumulation
2.46 2.59 2.38 2.46 2.24 2.37 2.73 3.04 3.06 3.25 3.41 3.24 2.80 2.55 2.56 2.52 2.32 2.32 2.60 2.83 2.88 2.82 2.95 3.00 2.70 2.52 2.44 2.10 1.79 1.62 1.45 1.32 1.17 0.99 0.89 0.84 0.75 0.56 0.39 0.32 0.31 0.33 0.31
2.67 2.75 2.60 2.58 2.29 2.32 2.64 3.00 3.06 3.38 3.43 3.42 2.87 2.49 2.43 2.41 2.18 2.09 2.23 2.70 2.72 2.62 2.67 2.92 2.98 2.89 2.80 2.51 2.22 1.94 1.70 1.49 1.30 1.05 0.90 0.85 0.81 0.71 0.61 0.50 0.44 0.41 0.36
2.89 3.05 2.96 2.59 2.37 2.48 2.69 2.71 2.86 3.36 3.22 3.14 2.97 2.84 2.75 2.54 2.26 2.20 2.14 2.33 2.27 2.38 2.53 2.65 2.84 3.06 3.17 3.08 2.84 2.49 2.15 1.77 1.45 1.17 0.99 0.87 0.79 0.70 0.65 0.60 0.56 0.54 0.47
2.59 2.83 2.60 2.22 2.30 2.51 2.68 2.70 2.72 3.12 3.26 3.26 3.25 3.06 2.89 2.67 2.25 2.14 2.09 2.06 2.09 1.89 2.14 2.40 2.65 2.95 3.34 3.55 3.58 3.46 3.03 2.36 1.81 1.44 1.17 1.03 0.91 0.77 0.63 0.59 0.60 0.61 0.51
1.78 2.06 2.05 1.98 1.97 2.23 2.28 2.01 2.29 2.63 2.85 2.97 2.74 2.58 2.26 2.03 1.87 1.77 1.75 1.65 1.85 1.98 2.09 2.07 2.35 2.61 3.15 3.84 4.33 4.36 3.95 3.20 2.44 1.98 1.69 1.44 1.30 1.07 0.81 0.67 0.67 0.64 0.57
1.55 1.80 1.83 1.66 1.62 1.79 1.86 2.02 2.35 2.44 2.36 2.41 2.07 1.98 1.90 1.70 1.66 1.63 1.45 1.46 1.61 1.58 1.74 1.97 2.26 2.06 2.52 3.30 3.91 4.23 4.20 3.81 3.09 2.50 2.18 2.01 1.90 1.57 1.16 0.98 0.91 0.80 0.70
1.65 1.86 1.70 1.72 1.61 1.63 1.66 1.75 1.98 2.08 1.85 2.01 2.28 2.06 1.72 1.46 1.48 1.44 1.39 1.48 1.52 1.59 1.72 2.09 2.32 2.35 2.15 2.20 2.55 3.20 3.83 4.13 3.93 3.33 2.76 2.43 2.33 1.99 1.48 1.27 1.11 0.99 0.95
1.65 1.55 1.71 1.54 1.47 1.65 1.62 1.68 1.90 1.91 1.68 1.80 2.12 2.22 1.95 1.83 1.50 1.07 1.26 1.37 1.42 1.70 1.79 1.80 2.04 2.49 2.48 2.58 2.00 2.27 3.22 3.85 4.31 4.33 3.77 3.11 2.74 2.32 1.87 1.65 1.44 1.27 1.21
1.39 1.43 1.42 1.34 1.41 1.33 1.49 1.64 1.76 1.93 1.89 1.71 1.70 2.04 1.99 1.95 1.72 1.27 1.07 1.14 1.39 1.66 1.65 1.74 1.79 2.13 2.43 2.80 2.66 2.20 2.37 2.80 3.72 4.57 4.55 3.81 2.97 2.37 2.08 1.98 1.90 1.67 1.48
1.37 1.37 1.30 1.38 1.39 1.27 1.53 1.31 1.46 1.76 1.90 1.74 1.72 1.66 1.70 1.84 1.88 1.71 1.43 1.20 1.33 1.43 1.52 1.57 1.73 2.04 2.26 2.57 2.66 2.11 1.80 1.99 2.81 3.82 4.39 4.25 3.56 2.77 2.32 2.37 2.57 2.40 2.02
1.48 1.25 1.29 1.47 1.53 1.40 1.42 1.41 1.60 1.63 1.67 1.69 1.68 1.66 1.83 1.86 1.69 1.73 1.73 1.60 1.48 1.23 1.37 1.64 1.84 1.96 2.10 2.37 2.64 2.33 2.13 1.94 1.98 2.43 3.00 3.49 3.67 3.36 3.00 2.96 3.27 3.43 3.23
1.46 1.34 1.40 1.62 1.63 1.59 1.55 1.49 1.50 1.56 1.72 1.82 1.81 1.69 1.76 1.82 1.78 1.87 1.72 1.65 1.67 1.45 1.58 1.86 1.94 1.98 1.95 2.12 2.15 2.11 2.03 1.90 1.81 1.79 1.96 2.28 2.73 3.04 3.07 3.20 3.58 3.95 4.08
1.27 1.36 1.41 1.58 1.57 1.59 1.52 1.65 1.68 1.62 1.71 1.78 1.77 1.72 1.65 1.59 1.70 1.85 1.89 1.74 1.76 1.70 1.91 1.94 1.97 1.97 1.88 2.12 2.20 2.09 1.78 1.71 1.58 1.47 1.51 1.68 1.93 2.32 2.69 2.93 3.29 3.67 3.97
1.15 1.17 1.27 1.33 1.37 1.41 1.40 1.74 1.64 1.66 1.75 1.68 1.59 1.88 1.79 1.55 1.70 1.84 2.05 2.22 2.10 2.00 2.10 2.06 2.06 2.03 2.15 2.22 2.25 2.15 1.83 1.78 1.59 1.45 1.35 1.33 1.40 1.58 1.90 2.19 2.47 2.77 3.07
1.22 1.25 1.29 1.45 1.54 1.56 1.58 1.78 1.73 1.71 1.84 1.69 1.67 1.81 1.77 1.71 1.73 1.73 2.06 2.35 2.47 2.32 2.21 2.13 1.95 1.86 1.94 2.04 2.05 1.77 1.60 1.64 1.53 1.40 1.32 1.27 1.25 1.32 1.45 1.56 1.64 1.72 1.83
1.36 1.43 1.46 1.56 1.62 1.58 1.57 1.73 1.74 1.83 1.90 1.80 1.78 1.81 1.78 1.77 1.87 1.80 1.93 2.15 2.35 2.54 2.40 1.99 1.84 1.76 1.73 1.58 1.64 1.46 1.44 1.61 1.48 1.33 1.29 1.28 1.29 1.30 1.29 1.31 1.34 1.36 1.39
1.39 1.44 1.53 1.60 1.58 1.64 1.75 1.85 1.72 1.78 1.90 2.06 1.98 1.96 2.02 2.12 2.08 1.99 2.05 2.13 2.27 2.55 2.52 2.07 1.96 1.96 1.83 1.62 1.53 1.45 1.41 1.51 1.51 1.60 1.46 1.36 1.27 1.19 1.17 1.16 1.17 1.21 1.26
1.58 1.56 1.59 1.62 1.52 1.56 1.76 1.83 1.82 1.85 1.90 1.95 2.11 2.32 2.28 2.29 2.21 2.07 2.17 2.14 2.20 2.47 2.40 2.18 2.20 2.19 2.13 1.87 1.74 1.60 1.45 1.44 1.50 1.69 1.47 1.34 1.27 1.20 1.17 1.16 1.15 1.12 1.11
1.83 1.86 1.84 1.74 1.65 1.64 1.71 1.81 1.90 1.92 1.96 2.03 2.14 2.25 2.29 2.43 2.31 2.21 2.15 2.12 2.20 2.36 2.45 2.29 2.25 2.40 2.31 2.05 1.90 1.69 1.50 1.53 1.38 1.51 1.48 1.37 1.33 1.25 1.19 1.13 1.11 1.10 1.06
1.89 2.02 1.99 1.93 1.89 1.79 1.66 1.64 1.68 1.77 1.94 2.08 2.13 2.06 2.14 2.37 2.43 2.39 2.23 2.18 2.27 2.42 2.46 2.40 2.35 2.46 2.47 2.39 2.21 1.95 1.80 1.68 1.53 1.42 1.47 1.36 1.31 1.25 1.18 1.10 1.05 1.04 1.05
1.85 2.02 2.09 2.10 2.04 1.87 1.64 1.65 1.77 1.77 1.94 1.98 1.94 1.84 1.83 2.03 2.26 2.35 2.16 2.14 2.26 2.29 2.30 2.33 2.34 2.40 2.44 2.54 2.41 2.12 1.90 1.77 1.56 1.39 1.40 1.30 1.24 1.14 1.15 1.14 1.07 1.00 0.92
2.27 2.31 2.25 2.19 2.10 1.74 1.79 1.78 1.76 1.79 1.91 1.94 1.92 1.85 1.72 1.69 1.72 1.87 2.00 2.13 2.25 2.22 2.21 2.37 2.53 2.58 2.57 2.58 2.57 2.35 2.07 1.84 1.70 1.50 1.54 1.52 1.43 1.36 1.18 1.07 1.10 1.01 0.92
2.63 2.66 2.54 2.36 2.21 2.11 1.99 1.76 1.71 1.63 1.68 1.72 1.77 1.76 1.50 1.36 1.47 1.41 1.59 1.74 1.87 1.95 1.98 2.13 2.30 2.42 2.54 2.68 2.72 2.48 2.29 2.10 1.85 1.64 1.61 1.50 1.40 1.40 1.29 1.21 1.27 1.10 1.01
2.52 2.55 2.49 2.36 2.26 2.17 2.02 1.68 1.59 1.40 1.46 1.51 1.54 1.54 1.49 1.41 1.39 1.45 1.46 1.45 1.44 1.52 1.63 1.65 1.78 2.02 2.26 2.48 2.64 2.55 2.43 2.15 1.87 1.66 1.60 1.49 1.34 1.31 1.25 1.26 1.35 1.24 1.11
2.23 2.13 2.11 2.12 2.10 2.14 2.05 1.69 1.49 1.35 1.47 1.50 1.51 1.54 1.57 1.49 1.59 1.46 1.42 1.46 1.48 1.50 1.54 1.58 1.60 1.76 2.02 2.20 2.30 2.37 2.34 2.19 1.95 1.73 1.64 1.63 1.44 1.35 1.29 1.18 1.17 1.22 1.10
2.12 2.06 1.99 2.02 2.01 1.99 1.97 1.58 1.43 1.36 1.49 1.51 1.55 1.55 1.54 1.43 1.43 1.30 1.25 1.39 1.41 1.43 1.47 1.48 1.49 1.52 1.61 1.92 2.23 2.07 2.07 2.10 1.92 1.65 1.41 1.46 1.44 1.43 1.33 1.06 0.95 0.94 0.91